Regional Weather Roundup
Issued by NWS

Home | Current Version | Previous Version | Graphics & Text | Print | Product List | Glossary On
Versions: 1 2 3 4 5 6 7 8 9 10 11 12 13 14 15 16 17 18 19 20 21 22 23 24 25 26 27 28
000
ASUS43 KDMX 311207
RWRIA

WEATHER ROUNDUP FOR IOWA
NATIONAL WEATHER SERVICE DES MOINES IA
700 AM CDT FRI OCT 31 2014

NOTE: "FAIR" INDICATES FEW OR NO CLOUDS BELOW 12,000 FEET WITH NO
SIGNIFICANT WEATHER AND/OR OBSTRUCTIONS TO VISIBILITY.

* - THESE STATIONS ARE NOT NWS STATIONS...THUS NOT UNDER NWS
QUALITY CONTROL.  THEY ALSO DO NOT REPORT WEATHER SUCH
AS PRECIPITATION OR FOG.

IAZ001>003-012>014-020>022-031>034-043>046-311300-
   NORTHWEST IOWA

CITY           SKY/WX    TMP DP  RH WIND       PRES   REMARKS
CARROLL *      CLEAR     25  19  80 N12       30.48S WCI  14
CHEROKEE *     CLEAR     24  20  85 N7        30.53R WCI  16
DENISON *      CLEAR     27  21  80 N8        30.49R WCI  18
LE MARS *      CLEAR     23  21  93 N7        30.56R WCI  15
ORANGE CITY *  CLEAR     25  19  80 N7        30.53R WCI  17
SHELDON *      CLEAR     19  18  93 NW7       30.52R WCI  10
SIOUX CITY     CLEAR     25  20  81 NW9       30.57R WCI  15
6HR MIN TEMP:  25; 6HR MAX TEMP:  36;

SPENCER        CLEAR     23  18  81 N12       30.51R WCI  12
6HR MIN TEMP:  23; 6HR MAX TEMP:  32;

STORM LAKE *   CLEAR     23  19  86 N8        30.50R WCI  14
$$

IAZ055>058-069>071-079>083-090>094-311300-
   SOUTHWEST IOWA

CITY           SKY/WX    TMP DP  RH WIND       PRES   REMARKS
ATLANTIC *     CLEAR     28  19  69 N13       30.48R WCI  18
AUDUBON *      CLEAR     27  16  63 N13       30.48R WCI  16
COUNCIL BLFS * CLEAR     28  21  74 N8G18     30.50R WCI  20
CRESTON *      CLEAR     28  18  64 N20G26    30.42S WCI  15
HARLAN  *      CLEAR     27  21  80 N9        30.53R WCI  17
LAMONI         CLEAR     30  17  58 N20       30.40R WCI  17
6HR MIN TEMP:  30; 6HR MAX TEMP:  47; 6HR PCP: TRACE;

RED OAK *      CLEAR     28  21  74 N12       30.49R WCI  18
SHENANDOAH *   CLEAR     30  21  69 N10       30.50R WCI  21
$$

IAZ047>049-059>061-072>074-084-311300-
   CENTRAL IOWA

CITY           SKY/WX    TMP DP  RH WIND       PRES   REMARKS
AMES           CLEAR     28  17  63 N17G26    30.44R WCI  16
6HR MIN TEMP:  28; 6HR MAX TEMP:  40;

ANKENY *       CLEAR     30  18  59 N15G22    30.44R WCI  19
CHARITON *     CLEAR     30  18  59 N15G24    30.40R WCI  19
DES MOINES     CLEAR     31  16  54 N14G22    30.44R WCI  21
6HR MIN TEMP:  31; 6HR MAX TEMP:  44; 6HR PCP: TRACE;

GRINNELL*      CLEAR     28  18  64 N16G24    30.40R WCI  17
KNOXVILLE *    CLEAR     30  16  55 N18G26    30.39R WCI  18
MARSHALLTOWN   CLEAR     28  17  63 N16       30.41R WCI  16
6HR MIN TEMP:  28; 6HR MAX TEMP:  41;

PELLA *        CLEAR     30  18  60 N14G22    30.42R WCI  19
PERRY *          N/A     28  19  69 N14       30.47R WCI  17
$$

IAZ004>006-015-016-023>025-035-036-311300-
   NORTH CENTRAL IOWA

CITY           SKY/WX    TMP DP  RH WIND       PRES   REMARKS
ALGONA *       CLEAR     27  18  69 N14G20    30.48S WCI  15
CLARION *      CLEAR     25  18  74 N12       30.46R WCI  14
ESTHERVILLE    CLEAR     23  17  78 N13       30.49S WCI  11
6HR MIN TEMP:  22; 6HR MAX TEMP:  30;

FORT DODGE *   CLEAR     27  16  63 N9        30.47S WCI  17
MASON CITY     CLEAR     24  17  74 N13       30.45R WCI  12
6HR MIN TEMP:  24; 6HR MAX TEMP:  34;

FOREST CITY *  CLEAR     27  19  74 N12       30.45S WCI  16
IOWA FALLS *     N/A     27  18  69 N15       30.43S WCI  15
$$

IAZ007>011-017>019-026>030-037>042-050>054-066-311300-
   NORTHEAST IOWA

CITY           SKY/WX    TMP DP  RH WIND       PRES   REMARKS
CEDAR RAPIDS   CLEAR     29  19  66 N20       30.34R WCI  16
6HR MIN TEMP:  29; 6HR MAX TEMP:  45;

CHARLES CITY * CLEAR     27  18  69 N14       30.42R WCI  15
CLINTON *      MOCLDY    34  19  55 N17G29    30.28R WCI  23
DECORAH *      CLEAR     27  19  74 N12G17    30.36R WCI  16
DUBUQUE        CLEAR     30  21  69 N20G28    30.28R WCI  17
6HR MIN TEMP:  30; 6HR MAX TEMP:  43;

MONTICELLO *   CLEAR     30  19  64 NW18G24   30.31R WCI  18
OELWEIN *      CLEAR     28  19  69 N15G24    30.37R WCI  17
WATERLOO         N/A     27  18  69 N20       30.39R WCI  13
6HR MIN TEMP:  27; 6HR MAX TEMP:  41;

$$

IAZ064-065-067-068-078-311300-
   EAST CENTRAL IOWA

CITY           SKY/WX    TMP DP  RH WIND       PRES   REMARKS
DAVENPORT      PTCLDY    32  19  58 NW17      30.27R WCI  21
6HR MIN TEMP:  32; 6HR MAX TEMP:  47;

IOWA CITY      CLEAR     32  19  58 N20G29    30.35R WCI  20
6HR MIN TEMP:  32; 6HR MAX TEMP:  48;

MT. PLEASANT * CLEAR     31  17  56 NW18G26   30.32R WCI  19
MUSCATINE *    CLEAR     32  18  55 N17G25    30.32R WCI  21
QUAD CITIES    PTCLDY    35  20  54 NW17G30   30.26R WCI  25
6HR MIN TEMP:  34; 6HR MAX TEMP:  49;

$$

IAZ062-063-075>077-085>089-095>099-311300-
   SOUTHEAST IOWA

CITY           SKY/WX    TMP DP  RH WIND       PRES   REMARKS
BURLINGTON     CLEAR     33  18  53 N18G30    30.29R WCI  22
6HR MIN TEMP:  33; 6HR MAX TEMP:  48;

FAIRFIELD *    CLEAR     30  18  59 N20G28    30.35R WCI  18
FORT MADISON * CLEAR     34  19  55 NW15G21   30.31R WCI  24
KEOKUK *       CLEAR     34  18  51 N14G24    30.30R WCI  24
OSKALOOSA *      N/A     30  18  61 N22       30.38R WCI  17
CENTERVILLE *  CLEAR     32  16  51 N14G25    30.39R WCI  22
OTTUMWA        CLEAR     30  17  58 N17G29    30.38R WCI  18
6HR MIN TEMP:  30; 6HR MAX TEMP:  48; 6HR PCP: TRACE;

WASHINGTON *   CLEAR     32  19  59 N20G29    30.34R WCI  20
$$

ABBREVIATIONS USED IN REMARKS
   TC - TEMPERATURES IN CELSIUS
  WCI - WIND CHILL INDEX
   HX - HEAT INDEX
  VSB - VISIBILITY
$$




USA.gov is the U.S. government's official web portal to all federal, state and local government web resources and services.